RH
12 12 13 14 11 10 10 9 9 8 8 8 6 7 5 6 18 37 51 47 32 32 43 56 64 58 49 47 47 47 43 35 34 34 27 24 23 29 53 73 71 66 63 65 75 83 85 88 93 98 98 99 99 98 99 96 96 96 97 99 99 100 99 93 91 90 87 85 79 78 80 82 87 87 87 91 94 94 90 82 79 77 77 79 79
14 16 19 18 13 10 10 9 9 10 9 9 9 7 7 6 6 13 23 23 19 31 49 59 63 60 53 50 51 51 49 45 48 48 35 27 23 24 50 68 60 59 64 68 72 73 79 88 95 97 98 99 98 97 99 99 99 97 97 100 99 100 98 95 95 91 87 86 84 85 86 82 84 85 89 95 95 93 89 83 83 81 82 83 80
18 20 21 18 12 10 11 10 11 11 10 10 12 11 9 7 6 5 6 8 7 17 41 55 61 63 56 51 51 52 52 51 55 53 39 32 24 21 44 62 54 53 62 64 64 65 73 84 89 94 99 98 94 92 96 99 96 93 96 98 99 99 97 96 98 95 89 90 92 94 91 84 83 82 84 91 93 93 90 86 86 86 84 82 80
18 18 18 17 14 13 13 12 12 11 12 14 15 14 12 9 8 6 4 6 4 8 29 51 62 65 61 55 54 53 52 54 56 52 41 33 28 25 32 42 43 48 53 55 59 60 62 74 80 84 92 97 96 93 94 95 88 88 96 99 100 99 98 99 100 99 96 96 96 95 90 84 82 79 79 85 88 91 93 88 85 85 84 82 82
16 16 17 18 19 18 16 15 14 13 17 25 23 19 16 11 9 8 6 6 6 8 28 56 70 69 65 62 59 56 52 53 53 49 42 33 32 32 24 23 33 42 44 46 52 52 54 68 69 66 77 91 97 96 97 94 86 89 98 99 99 99 98 100 101 100 100 100 99 94 88 83 78 74 76 80 80 81 82 76 74 82 88 85 82
16 18 20 21 23 22 19 18 16 14 20 27 28 24 20 16 12 9 9 8 7 9 24 53 73 74 73 70 67 62 52 46 46 46 42 34 31 31 22 17 22 31 39 41 43 48 58 69 61 57 73 88 94 94 93 92 91 96 99 94 95 98 99 100 100 99 99 101 99 92 85 81 75 71 71 73 72 71 69 67 70 78 87 86 83
19 20 21 21 23 22 21 19 16 16 20 24 30 31 27 26 23 15 11 9 8 8 14 31 49 57 58 55 51 48 38 31 31 35 38 36 33 30 24 19 16 20 29 34 38 46 56 62 57 59 77 88 90 89 90 93 96 98 94 90 94 98 97 93 91 94 98 99 93 85 80 78 74 70 69 70 69 67 69 75 79 79 83 85 83
24 22 19 17 20 23 20 17 16 15 15 19 27 36 38 38 38 34 25 20 17 15 15 16 22 30 31 29 32 36 38 34 28 28 31 33 34 33 27 21 16 15 17 25 44 55 58 57 52 61 79 86 82 79 85 96 99 96 91 89 95 99 92 84 83 91 98 95 88 83 81 78 74 69 68 70 71 73 76 77 75 77 84 83 80
26 23 20 17 20 23 19 18 17 13 18 33 41 44 44 43 49 56 55 56 56 52 48 38 27 26 24 26 41 57 65 58 46 42 40 35 32 33 32 24 16 16 13 17 36 50 54 52 48 61 80 83 77 70 75 89 96 96 92 90 95 95 88 82 82 88 93 91 88 85 81 76 70 65 64 65 67 72 74 66 59 67 82 83 81
24 23 21 19 22 24 20 20 19 11 23 53 70 67 57 49 53 60 62 66 67 63 70 73 62 52 44 39 47 67 82 79 72 75 75 66 52 36 31 27 19 16 13 13 21 30 40 46 48 64 83 86 81 72 69 81 92 94 90 84 80 75 70 67 66 70 79 84 85 81 74 68 62 58 58 60 65 67 63 57 52 58 72 79 79
20 21 20 17 21 25 21 20 19 14 20 42 64 70 60 50 54 58 55 55 54 53 68 87 92 88 83 72 64 68 76 76 75 79 79 77 69 49 34 27 19 15 14 13 16 23 36 48 57 72 87 89 85 77 68 72 87 94 88 78 67 58 54 53 54 61 70 75 75 70 65 60 56 55 56 59 66 66 59 55 57 62 70 75 75
23 18 18 15 16 21 20 22 26 25 29 40 52 58 51 43 46 49 46 45 47 49 56 69 78 85 90 90 82 74 70 68 65 66 68 71 71 61 44 30 20 17 15 11 20 35 45 55 67 77 86 90 86 79 69 66 75 82 77 68 60 54 52 53 55 62 69 71 67 62 59 57 55 53 52 54 60 61 58 59 67 74 76 76 75
26 17 16 15 16 19 22 29 37 37 39 45 48 49 44 38 35 35 35 36 38 41 44 47 51 63 80 87 84 77 75 76 72 68 70 74 74 71 65 49 28 20 16 12 28 50 55 59 69 74 79 85 81 72 66 63 63 62 60 57 56 56 56 57 57 58 61 64 61 57 55 54 53 52 51 52 55 57 58 58 64 69 70 70 71
25 19 16 18 23 29 32 38 43 44 44 43 41 40 39 35 29 27 27 29 32 35 37 38 37 50 77 92 89 81 76 78 80 76 73 73 74 79 83 65 33 21 19 15 26 43 52 60 69 71 72 74 70 63 61 60 58 55 54 55 57 59 58 58 57 53 51 52 53 52 52 50 51 55 57 57 57 58 58 56 57 61 63 65 67
21 17 19 28 37 42 46 47 47 46 44 41 39 39 37 34 30 28 28 30 33 34 35 37 33 37 54 68 71 70 70 72 78 79 76 73 73 78 81 62 31 20 21 19 26 38 50 61 66 68 68 65 62 60 60 60 59 57 55 54 56 58 56 54 54 51 47 46 47 48 51 52 53 56 59 58 58 58 55 54 56 60 65 66 67
16 17 27 38 44 47 48 48 47 46 45 42 41 39 36 34 31 30 32 35 38 38 41 43 38 38 42 42 43 49 58 67 76 81 79 76 77 81 76 51 26 22 23 23 28 35 46 58 63 65 65 62 60 59 59 61 61 59 56 54 54 54 53 52 52 52 49 48 48 50 52 55 55 57 57 55 54 54 53 55 57 62 69 69 69
18 25 39 46 46 45 43 42 43 43 42 39 36 32 29 29 30 32 35 40 42 43 49 52 48 50 51 44 43 53 63 70 77 84 83 77 78 84 73 43 23 23 25 27 31 36 47 57 62 64 62 60 59 59 62 62 61 59 57 55 54 55 56 55 55 55 53 54 56 56 56 58 59 58 56 54 53 53 54 56 59 66 72 70 71
32 38 46 52 49 41 36 35 36 36 36 35 32 27 25 26 32 37 40 41 41 40 44 47 46 49 52 45 44 55 66 69 74 83 86 80 79 85 73 42 24 22 25 34 41 46 56 61 61 63 64 62 61 62 65 62 58 56 55 55 55 56 57 55 55 54 55 58 59 59 59 60 61 59 57 55 52 53 57 60 65 73 77 74 78
38 40 45 50 48 40 34 31 31 33 35 36 35 33 32 34 37 38 37 34 32 32 33 34 35 39 46 45 42 46 52 62 77 89 92 90 86 87 75 47 28 22 27 46 59 59 62 63 63 66 67 65 61 57 57 54 53 52 50 51 52 52 52 50 51 52 54 57 58 58 58 59 59 58 56 52 50 54 60 64 72 78 79 80 86
39 43 50 52 46 39 34 31 34 39 40 38 39 41 41 39 36 32 30 26 22 23 24 24 26 32 39 44 44 45 47 59 82 96 97 98 94 91 82 56 33 23 32 59 72 66 66 66 65 69 69 64 55 49 48 48 48 48 47 47 48 49 50 49 49 51 54 57 57 55 55 56 55 52 48 47 48 53 59 66 73 77 80 85 88
45 52 55 50 44 39 35 35 38 41 40 39 39 40 39 35 31 27 24 21 18 18 16 19 30 39 43 48 48 50 52 61 83 98 98 101 99 95 89 67 39 24 37 67 77 67 67 66 65 68 66 59 49 44 45 44 43 43 42 43 47 48 49 49 50 52 54 55 54 52 51 50 46 42 40 41 43 50 62 70 74 76 80 83 82
44 51 50 46 43 40 39 40 41 42 42 41 40 39 38 33 29 26 22 19 19 16 15 28 46 52 52 56 55 57 66 72 85 97 98 100 102 98 89 69 44 28 39 70 82 71 67 64 58 57 55 51 46 42 43 42 41 41 40 41 44 45 46 47 49 51 51 51 49 48 47 43 40 40 40 39 43 54 66 71 72 74 76 75 72
45 52 52 49 44 42 45 48 50 50 48 46 45 43 40 34 29 26 22 20 17 15 26 47 62 65 64 64 62 68 81 86 89 97 100 99 97 91 84 68 48 34 43 71 90 84 73 64 53 47 45 44 43 41 41 41 40 39 39 39 39 40 42 43 45 46 46 46 45 44 44 42 45 49 45 43 49 58 63 65 67 69 68 67 67
53 58 56 51 48 50 53 53 53 54 52 50 48 44 40 34 30 27 22 20 17 17 31 46 57 71 77 74 76 82 88 91 94 98 100 99 93 83 78 68 51 42 47 66 87 90 79 67 54 44 41 40 40 40 40 39 38 38 37 36 35 36 37 39 40 42 43 42 40 40 40 42 50 53 48 46 51 56 58 59 60 60 60 63 65
61 62 58 52 49 49 49 48 50 52 49 47 44 41 39 34 30 27 21 20 19 21 30 35 46 72 87 85 87 91 92 95 99 100 98 97 92 82 74 64 53 51 53 57 68 75 73 67 57 45 40 39 40 41 40 38 37 36 35 34 34 34 34 35 37 40 42 39 35 36 36 38 46 51 49 50 54 56 54 51 48 46 49 57 62
68 67 64 57 52 50 51 53 54 51 45 43 42 41 41 38 32 27 22 20 20 26 38 44 51 72 89 94 96 96 97 99 100 102 96 88 87 83 76 67 58 54 54 52 55 61 63 61 56 45 38 38 40 40 39 37 37 36 36 36 36 36 36 37 38 40 40 36 33 33 32 34 41 46 47 49 52 53 50 43 37 35 39 47 51
72 69 66 64 62 59 59 59 55 49 44 42 43 43 43 41 35 29 23 20 21 26 40 52 58 70 86 98 100 99 100 100 100 102 93 85 87 87 79 73 63 54 53 60 71 76 69 58 50 44 37 34 37 39 39 38 38 37 38 37 38 40 40 41 41 41 39 34 32 32 32 34 38 41 41 42 45 49 47 42 36 33 35 37 40
72 66 60 60 62 59 57 57 51 46 42 40 42 43 43 42 38 31 24 21 22 25 32 43 52 63 79 93 98 99 100 99 99 100 93 90 93 92 86 79 68 61 62 73 88 89 73 56 48 43 36 33 35 37 39 40 40 38 38 38 40 42 43 44 43 41 39 36 35 35 36 36 36 37 37 37 40 42 42 41 41 41 38 35 37
68 62 51 48 52 55 57 55 48 42 40 39 40 42 44 44 42 37 30 24 22 24 28 33 40 51 67 83 92 97 100 100 98 97 97 97 96 95 95 90 82 77 75 81 91 84 62 49 46 42 36 34 36 37 38 40 40 39 39 39 40 42 45 46 46 45 43 43 41 40 38 37 37 36 35 35 36 37 37 40 45 46 41 34 36
58 55 51 50 54 59 60 55 50 47 44 41 39 39 42 45 46 44 39 31 26 25 27 29 32 38 51 70 84 93 98 101 99 96 96 98 97 97 100 98 95 92 85 85 89 75 55 47 47 45 41 37 38 40 40 40 40 41 41 41 41 42 44 47 50 52 52 48 44 40 37 36 37 37 37 36 36 36 36 40 47 46 37 31 38
57 58 64 69 67 64 61 56 52 50 48 45 43 41 41 44 47 49 46 40 32 29 29 30 31 32 39 54 71 86 95 99 100 99 96 95 96 99 101 100 97 94 92 92 87 72 58 52 48 47 46 43 42 42 42 42 42 43 43 44 44 43 42 45 50 55 58 53 45 38 36 36 37 39 39 38 37 36 36 37 42 41 32 27 37
67 67 72 75 70 63 57 52 49 47 47 47 46 45 45 47 49 49 50 47 40 33 32 33 34 33 34 40 53 69 86 94 98 100 98 96 97 97 95 93 92 92 94 96 91 80 71 63 55 54 55 52 48 45 44 43 44 45 46 47 48 47 45 45 47 52 58 56 48 40 38 38 39 39 37 34 33 34 35 35 35 33 28 24 27
77 75 72 69 65 59 53 49 49 49 48 47 46 46 47 48 49 48 49 50 46 38 34 34 37 37 34 33 38 52 70 84 91 96 99 100 101 99 95 93 95 98 99 98 95 91 85 80 77 77 78 75 66 56 50 48 46 46 48 50 52 53 52 50 49 51 55 56 51 45 42 42 42 39 35 32 30 30 33 35 35 33 28 24 20
76 74 68 61 57 55 53 52 52 52 52 50 47 47 47 46 47 46 47 50 51 45 37 34 36 40 38 33 30 37 51 66 77 85 91 95 96 95 94 94 94 96 98 100 99 95 93 93 93 93 95 97 91 77 64 57 52 49 49 53 55 57 58 58 56 55 54 55 54 49 45 42 41 38 36 34 32 29 29 31 35 39 37 36 38
74 74 70 63 59 58 58 58 59 59 59 58 54 50 47 44 43 43 44 48 51 49 44 37 34 38 41 39 33 31 35 45 58 68 75 80 85 88 91 91 88 87 90 94 95 94 94 94 93 93 97 100 101 94 81 69 61 53 51 56 59 60 62 64 64 62 58 55 54 54 51 46 42 38 37 37 37 35 32 32 34 37 39 42 53
74 75 73 69 68 67 65 64 65 64 63 61 57 52 48 45 43 42 41 42 44 45 45 43 38 34 36 40 40 35 31 32 39 50 58 63 69 77 85 91 93 93 92 92 92 93 94 93 92 94 98 100 102 101 92 80 70 60 55 58 63 65 66 67 69 69 66 62 57 54 53 53 50 47 44 44 43 42 40 39 38 40 46 57 65
73 73 72 69 69 71 72 72 71 68 64 60 55 49 45 44 43 42 40 39 39 39 40 43 42 37 33 35 38 39 36 31 29 35 44 50 54 59 68 79 89 93 92 92 94 95 97 97 95 93 95 96 99 101 98 90 79 67 60 61 65 69 71 72 74 75 72 69 64 58 53 51 50 51 51 51 51 50 49 49 46 45 55 74 89
69 68 67 66 67 68 71 74 72 67 63 59 54 48 45 43 41 40 39 38 37 37 38 40 42 40 35 31 32 34 36 35 32 30 33 40 44 48 54 62 72 81 87 91 94 96 99 100 97 94 94 94 93 97 100 97 89 78 69 67 68 70 74 77 79 81 79 76 72 67 60 53 49 48 48 48 50 52 53 54 53 49 49 58 70
63 62 61 61 62 62 63 65 66 65 64 64 59 53 48 45 43 41 38 36 36 37 38 39 40 42 39 33 30 31 33 33 34 33 33 34 37 40 45 50 55 62 72 84 92 96 99 100 96 94 97 98 96 96 98 99 98 90 81 77 76 74 75 78 82 85 86 84 82 76 70 64 58 54 52 51 50 49 50 52 53 53 51 49 49
58 57 56 55 55 56 56 58 61 64 66 67 64 59 52 48 47 46 41 37 35 36 38 39 40 42 41 37 33 32 32 33 32 31 33 34 35 35 39 44 47 49 55 68 83 90 94 97 94 91 95 100 99 97 96 97 99 98 93 90 88 84 79 79 84 90 91 92 91 86 81 74 68 62 57 56 56 57 56 55 55 56 58 59 59
46 45 45 45 48 52 56 59 62 63 64 65 63 60 56 52 50 50 46 40 37 37 38 39 40 41 42 41 38 35 35 36 35 33 31 32 34 35 36 39 45 50 54 59 69 80 89 95 96 95 97 100 101 99 96 97 99 100 99 99 98 96 90 85 87 94 98 98 98 97 94 89 84 77 69 62 63 67 68 68 72 77 81 83 85
44 43 42 42 45 49 55 61 65 66 66 66 66 65 63 59 57 55 51 45 42 43 42 41 40 40 41 42 41 39 37 36 38 40 38 34 34 34 35 35 38 47 56 58 65 80 93 96 94 95 98 99 100 100 99 99 100 100 100 100 100 100 99 95 93 96 99 101 101 102 101 99 98 96 90 82 78 77 78 81 86 91 93 94 98
58 58 59 59 59 59 60 63 67 68 67 67 69 70 70 69 66 62 57 52 50 50 49 47 43 40 40 42 43 43 41 38 38 41 42 41 39 37 38 38 36 40 46 50 57 75 92 97 94 96 100 100 98 99 100 100 101 100 99 100 100 100 101 101 99 99 100 100 100 101 101 101 100 100 100 98 95 92 90 91 93 94 94 92 92
71 72 74 74 73 71 69 69 70 69 68 67 67 69 73 79 84 81 74 68 64 62 59 56 51 44 40 41 45 48 48 43 38 39 42 44 42 40 41 41 40 39 40 42 44 53 71 90 97 97 100 101 99 98 99 100 100 100 100 100 100 100 100 100 100 101 101 101 100 100 100 100 99 98 99 100 101 101 97 94 95 97 94 86 80
76 77 78 78 76 74 73 74 72 69 67 65 63 64 68 77 89 97 96 90 85 80 76 71 64 56 48 45 48 55 60 57 47 40 41 44 44 42 42 43 43 41 38 39 40 38 50 77 95 97 98 102 100 99 99 100 99 99 100 100 100 99 100 100 100 100 101 101 100 100 100 100 97 95 95 95 97 97 93 90 91 93 87 77 72
75 75 75 74 73 72 72 73 73 70 68 66 64 63 64 67 73 84 94 98 98 97 93 88 81 74 65 58 57 61 68 71 63 50 44 46 48 46 43 42 42 42 40 40 40 38 48 75 96 99 99 100 100 100 100 100 100 100 99 99 100 100 100 100 100 100 100 101 100 99 99 100 99 97 95 95 97 96 93 89 87 86 86 83 80
56 54 53 52 51 51 51 53 54 57 60 61 62 63 64 65 67 70 76 84 91 96 98 98 96 92 86 80 76 75 77 79 77 66 55 50 50 50 48 44 41 40 40 39 36 38 55 82 98 100 100 99 99 100 100 99 100 100 99 99 100 100 100 100 100 100 100 100 100 99 99 99 100 99 99 99 100 100 98 94 90 89 92 95 93
23 21 21 21 20 20 21 22 25 29 33 37 42 45 49 52 57 62 66 71 77 83 88 92 95 96 96 94 92 90 89 88 87 81 72 64 61 59 55 51 45 41 40 41 38 37 54 81 97 99 100 100 99 99 99 99 100 100 99 100 100 99 100 100 99 100 100 100 99 99 99 99 99 100 100 99 98 100 100 99 98 98 99 100 100
6 6 6 6 6 6 6 7 8 9 11 13 16 20 24 28 33 40 47 54 61 67 73 79 84 87 89 90 90 90 90 90 90 88 84 79 76 73 69 63 59 53 48 48 48 49 62 84 98 100 99 99 99 99 100 99 100 99 99 100 100 99 100 100 100 100 100 100 99 99 99 99 99 100 100 97 96 99 101 100 101 101 99 96 96
5 5 5 4 5 5 4 4 4 4 4 5 5 6 7 10 13 17 22 28 35 42 49 57 66 72 75 76 78 78 78 79 81 83 83 82 81 82 81 77 74 70 64 61 62 68 79 92 100 100 99 99 99 100 100 100 99 100 100 100 100 100 100 100 100 100 100 100 100 100 100 100 100 100 100 99 99 100 100 100 101 102 98 93 94
6 6 6 6 5 5 5 5 5 5 5 4 5 5 4 4 5 6 7 10 13 18 23 30 38 48 56 60 64 66 68 69 71 72 74 76 77 79 80 81 81 82 82 80 81 85 92 97 100 100 99 99 100 99 99 100 99 100 100 100 100 100 100 100 100 100 100 100 100 100 101 102 102 101 100 100 100 100 100 100 101 101 100 98 99
Wind_Speed
17 18 18 19 19 16 14 14 14 13 13 13 12 12 12 12 13 13 14 14 15 16 17 17 18 17 10 6 8 10 11 12 14 15 18 19 21 21 17 15 18 18 18 18 18 19 20 22 22 21 19 18 20 22 21 20 18 20 21 20 21 20 18 17 17 15 15 16 16 15 13 14 16 17 16 16 14 14 15 16 16 15 15 14 14
17 18 18 18 19 18 16 15 14 13 13 13 13 12 12 13 14 15 16 16 16 16 18 19 20 18 14 10 9 10 12 14 15 16 17 18 21 21 17 16 18 18 18 17 17 19 21 23 25 24 22 17 14 16 19 19 19 22 24 23 23 22 19 19 18 15 15 17 17 16 15 16 17 17 16 15 14 14 15 15 15 15 14 14 14
16 16 16 17 19 20 18 16 13 12 12 12 12 12 12 13 14 15 17 18 18 17 18 20 20 20 19 16 13 13 15 16 17 17 17 18 20 19 18 18 19 19 18 16 18 21 21 21 24 22 20 16 12 14 18 20 21 23 24 24 24 23 22 21 18 16 16 17 17 17 17 17 17 17 17 15 14 14 14 15 14 14 14 15 15
17 17 17 17 18 20 20 18 15 14 13 12 10 10 12 13 14 15 17 18 19 18 17 19 21 22 21 19 17 16 17 19 19 19 19 19 19 20 20 21 21 20 19 17 19 21 21 20 20 17 12 12 13 14 15 19 20 20 21 24 25 25 24 22 19 18 17 17 17 17 17 16 17 18 17 15 14 15 15 14 14 15 16 17 16
18 18 18 17 18 19 20 20 18 15 12 10 8 8 10 13 14 16 18 19 19 19 18 18 20 22 22 21 20 21 21 22 22 21 20 20 21 22 22 22 22 22 20 19 20 21 21 20 18 16 15 15 15 14 16 20 20 21 21 21 23 25 23 21 19 18 17 17 17 17 16 17 18 18 16 15 16 16 16 15 16 17 17 17 16
17 17 18 18 18 19 20 20 19 15 11 10 9 9 10 12 14 15 17 20 21 21 20 20 22 24 25 24 25 26 25 25 25 23 22 22 22 23 23 23 23 23 22 21 20 20 21 21 19 18 17 17 16 15 18 20 21 22 19 17 19 21 20 19 19 18 17 17 17 16 17 18 19 18 16 17 17 17 16 16 17 18 18 16 15
17 18 19 19 19 19 19 19 19 16 13 13 13 12 11 11 13 15 17 20 22 23 24 24 26 28 29 30 31 31 30 29 28 24 23 23 24 24 24 23 23 23 23 23 20 19 20 21 21 19 18 17 16 15 17 19 19 17 14 15 17 18 19 20 19 19 18 17 16 16 17 18 18 17 16 17 17 16 16 16 16 18 18 16 15
20 20 20 20 20 19 19 19 19 18 18 18 15 12 12 12 13 15 17 19 22 25 27 27 28 30 31 34 35 33 31 30 28 24 23 24 25 25 24 23 22 22 23 23 20 19 20 21 20 20 18 17 16 14 15 18 17 15 14 16 17 16 17 18 18 18 18 17 16 16 16 17 17 17 17 17 17 16 16 16 16 16 16 16 15
22 22 21 21 21 20 20 20 20 20 20 21 18 14 13 14 15 17 18 20 22 26 30 30 29 29 31 32 33 33 31 28 25 24 25 26 26 26 25 22 21 22 23 23 20 19 21 21 21 20 19 18 16 15 16 17 17 16 15 16 16 14 14 15 16 16 17 17 16 16 16 17 17 17 18 18 18 18 18 18 17 16 16 16 15
22 21 21 21 21 21 21 21 21 21 19 18 19 19 18 18 18 18 18 21 25 28 30 32 34 32 30 31 32 33 32 29 27 25 25 25 24 24 24 23 22 21 22 22 21 21 22 22 21 21 21 19 18 17 18 18 17 15 14 14 13 13 13 14 15 16 16 17 17 17 17 17 18 18 18 18 18 18 18 17 17 17 17 17 16
23 22 21 21 21 21 20 20 20 21 20 17 18 21 21 20 19 19 20 24 27 28 27 28 32 33 31 30 31 31 30 29 30 29 27 26 24 22 23 23 21 21 21 21 21 22 22 21 21 21 22 22 21 20 19 20 18 14 12 13 13 13 14 15 15 16 17 17 17 17 17 17 18 17 17 17 17 18 17 16 16 17 17 17 18
27 24 22 22 21 20 18 18 18 19 20 19 19 20 21 21 21 21 23 25 26 27 27 26 27 28 27 26 27 29 29 30 32 31 30 30 26 22 22 22 22 21 22 22 21 22 23 21 20 21 22 23 22 20 19 19 19 16 15 14 14 13 14 14 15 15 16 17 18 17 17 17 17 17 17 17 18 18 17 15 15 16 17 18 19
31 27 24 22 21 20 18 17 18 18 19 20 21 22 22 22 23 23 23 24 26 27 28 28 27 27 26 25 26 29 30 31 34 35 32 31 27 21 20 21 22 22 22 23 22 23 24 22 21 21 21 22 20 19 18 18 18 17 16 15 14 13 13 14 15 15 17 18 18 18 17 18 18 18 18 18 18 19 18 18 18 19 20 20 20
30 27 23 20 20 19 18 17 18 19 20 21 21 22 23 24 24 24 22 24 27 28 29 29 28 27 26 25 27 32 32 32 36 37 33 31 29 24 19 20 22 22 23 24 24 24 25 23 22 21 21 20 19 17 17 17 17 16 15 14 14 14 14 14 15 17 18 19 19 19 19 19 19 19 19 19 19 20 20 20 21 21 21 22 22
25 23 19 17 16 17 18 19 19 20 21 22 22 22 23 23 24 25 25 26 28 30 32 30 28 28 27 26 28 32 34 34 37 39 36 32 30 27 21 19 21 23 24 25 25 25 25 24 22 21 20 19 18 17 16 16 16 16 15 14 14 14 15 15 16 17 19 19 19 20 21 21 20 20 21 21 21 21 22 22 22 22 22 23 23
22 20 17 16 16 17 18 20 21 21 22 22 23 23 24 24 25 26 27 27 28 30 32 30 29 29 27 27 29 31 33 37 39 40 39 34 31 29 23 19 21 22 24 25 26 26 25 23 22 20 19 19 18 17 16 16 15 15 15 15 15 15 16 16 16 17 19 19 20 21 22 22 22 22 23 23 23 23 24 24 23 22 23 23 23
20 18 17 17 17 17 18 19 20 21 22 23 24 24 25 25 26 27 27 27 26 27 29 29 28 28 26 27 29 30 30 33 33 35 36 34 33 32 25 21 22 22 24 26 27 26 24 23 21 20 19 19 18 17 16 16 16 15 15 15 15 15 16 16 17 17 18 20 21 21 21 22 22 23 24 24 24 24 24 24 23 22 23 23 22
19 18 18 18 17 17 18 19 20 21 23 24 25 25 25 25 26 26 27 26 25 26 26 26 26 26 25 27 29 29 28 29 29 31 34 33 35 35 27 23 24 23 25 27 27 26 24 22 21 20 19 18 18 18 17 17 17 16 16 15 15 15 16 17 17 18 18 19 20 20 21 22 22 23 24 25 25 25 24 24 22 22 22 22 22
19 19 19 18 18 19 19 20 22 22 23 23 24 24 24 25 26 26 27 26 26 25 25 24 24 24 24 25 28 29 29 29 29 32 34 33 35 34 28 24 25 25 26 26 26 26 24 23 21 20 19 19 19 19 18 18 18 17 16 16 16 17 17 18 18 19 19 20 20 20 21 22 23 24 24 25 25 25 24 23 22 22 22 22 21
19 19 19 19 20 21 22 22 23 23 23 23 23 25 25 25 26 27 27 26 25 25 25 24 24 26 26 25 25 27 29 29 29 31 33 33 34 32 27 26 27 27 28 27 26 26 25 24 22 21 21 21 21 20 20 20 19 18 18 18 18 18 18 19 19 20 20 21 21 21 22 23 24 24 24 24 25 25 24 23 22 22 22 22 21
19 20 20 20 21 22 23 23 24 24 24 24 24 25 25 25 26 26 25 25 24 24 24 24 24 26 27 26 25 26 28 29 29 29 31 32 33 31 27 27 28 29 29 28 27 28 27 25 23 23 22 23 23 22 21 20 20 19 19 19 19 19 19 19 19 20 21 21 22 22 22 22 22 23 23 23 24 24 23 22 22 21 22 22 22
20 20 21 21 21 22 23 24 24 24 24 23 23 24 25 26 26 26 25 24 24 24 23 23 24 25 26 26 26 26 28 30 30 30 30 30 32 30 27 27 28 30 30 29 29 29 27 26 25 24 24 24 23 22 21 20 20 20 20 20 19 19 19 19 19 20 20 21 21 21 21 21 21 22 22 22 22 22 22 21 21 21 21 22 22
20 20 21 21 21 21 21 22 22 23 22 23 23 24 25 26 27 26 25 24 24 23 22 22 24 24 24 24 24 25 27 29 29 28 28 29 30 29 27 27 28 29 31 31 30 29 27 27 26 26 26 25 23 22 22 21 20 20 20 20 19 20 20 20 20 20 20 20 20 20 20 20 21 21 21 21 21 21 20 20 20 20 20 21 22
20 20 21 20 20 19 20 21 22 23 23 24 25 25 25 26 26 26 24 24 23 22 22 23 24 23 22 21 21 22 25 27 27 26 27 29 30 28 26 27 29 29 31 33 31 29 28 27 27 27 26 25 23 23 23 22 21 21 20 20 20 20 20 21 20 20 20 20 20 20 20 20 21 21 20 20 20 20 20 20 20 20 20 20 22
19 20 21 21 21 20 21 21 21 21 22 23 24 25 25 25 24 24 23 23 22 22 22 23 23 22 20 19 18 17 18 20 23 26 28 29 30 27 25 27 30 31 32 34 33 30 28 28 27 27 26 25 24 24 24 23 22 21 20 20 20 20 21 21 21 21 20 21 21 21 20 21 22 21 21 20 20 20 20 20 20 20 20 21 22
16 16 18 19 20 20 20 20 20 21 22 23 23 23 24 24 23 23 22 22 21 21 22 23 23 22 19 18 17 15 14 16 22 26 28 30 30 27 26 27 30 32 32 32 32 31 29 28 27 27 26 25 25 25 24 23 22 21 20 20 19 19 20 20 20 21 21 21 21 21 21 22 22 22 22 21 21 21 20 20 20 20 20 21 22
18 17 17 18 18 19 20 21 22 22 22 22 23 22 22 22 22 22 21 21 21 21 21 22 23 22 20 18 17 17 17 18 22 26 28 30 28 25 26 29 31 32 31 30 30 30 29 27 27 26 26 26 25 25 23 23 22 21 20 19 19 18 18 19 20 21 21 22 22 22 22 23 23 23 23 23 22 21 21 21 22 22 21 22 23
24 23 22 21 21 22 23 23 23 22 22 22 23 22 21 21 21 21 21 20 20 20 21 22 22 22 21 18 16 17 19 20 21 25 28 29 26 24 26 29 30 30 30 30 31 30 28 26 25 25 26 26 26 25 24 23 22 22 21 20 19 19 19 19 20 20 21 22 22 23 23 24 24 24 23 23 23 22 22 23 24 24 24 24 24
27 27 26 25 25 25 25 24 23 22 22 23 24 24 23 22 21 21 21 20 20 20 21 21 21 22 22 20 17 15 18 22 22 23 28 28 25 25 27 28 28 29 29 30 29 28 26 25 25 26 27 27 27 26 25 24 23 23 22 21 20 20 20 20 20 21 21 22 23 23 24 25 24 23 23 23 23 23 24 24 25 25 25 25 25
28 27 26 26 26 26 25 24 23 23 24 25 26 26 25 24 23 22 21 20 20 21 21 20 20 20 21 21 19 15 14 22 24 23 26 28 27 27 28 28 27 27 28 29 28 26 26 26 25 25 26 27 28 27 27 26 25 24 23 22 22 21 21 21 21 22 22 23 23 24 24 24 24 23 23 23 23 24 24 25 25 26 26 26 26
27 26 25 25 25 25 25 26 27 28 29 29 29 28 28 28 27 25 23 21 21 21 21 20 19 18 19 20 20 16 11 17 24 25 26 27 27 28 29 28 28 27 28 29 28 27 28 28 26 26 26 28 29 29 28 28 27 25 24 23 23 22 22 21 22 23 23 23 24 24 24 24 23 23 23 23 24 24 25 26 26 26 27 28 29
27 26 26 27 27 27 28 29 30 30 30 30 31 30 29 29 29 28 25 23 22 22 22 21 19 17 18 19 20 18 13 11 18 23 25 26 27 28 29 29 29 29 30 30 30 29 29 28 27 26 27 28 29 30 30 29 28 27 25 24 24 23 23 22 23 23 24 24 25 25 25 24 24 24 24 24 25 26 26 27 27 27 28 29 30
27 27 28 30 31 31 31 31 31 30 30 30 31 31 31 30 30 30 28 26 23 22 22 22 21 18 17 18 19 19 17 14 13 17 21 24 26 27 29 29 30 31 32 34 34 33 31 29 28 28 28 29 30 32 31 30 30 29 27 25 25 25 24 24 24 24 25 25 26 26 27 27 26 26 26 26 27 27 27 28 27 28 29 31 32
30 30 31 32 33 34 33 33 32 32 31 31 31 32 32 31 31 31 30 28 26 24 23 23 22 20 18 18 18 19 20 18 16 16 17 20 23 26 27 28 28 29 30 33 36 37 36 35 35 34 32 30 31 33 34 32 32 31 29 27 26 26 26 25 26 26 27 27 27 28 29 29 30 29 28 28 28 28 28 28 28 28 29 31 32
32 32 32 33 34 34 34 33 32 32 33 33 33 33 33 33 32 32 31 30 28 26 25 24 23 21 20 19 19 20 21 21 20 20 19 20 22 24 26 27 27 27 28 30 32 35 37 38 37 36 34 31 31 33 35 35 34 33 31 29 28 27 27 27 27 27 28 29 29 29 30 30 31 31 31 30 30 29 28 28 27 28 28 30 31
31 31 31 32 33 34 34 33 33 33 34 34 34 34 34 34 34 33 32 31 29 28 26 25 25 24 22 21 20 20 21 23 23 23 23 22 22 24 25 27 28 29 29 30 30 31 32 33 33 33 33 31 31 32 34 35 35 35 33 31 29 28 28 28 27 28 29 30 31 31 31 31 31 32 32 31 31 31 30 29 29 29 29 29 30
30 29 29 30 31 33 34 34 35 35 35 35 35 34 35 35 35 35 33 32 31 29 27 26 26 26 25 23 22 21 22 23 25 26 25 24 24 25 25 25 27 29 30 31 31 31 31 31 31 32 31 30 30 31 33 35 36 37 35 34 32 30 30 29 29 29 30 31 32 33 34 34 33 33 33 33 33 33 33 32 32 32 31 29 27
29 29 28 28 29 32 34 35 36 37 36 37 37 36 36 36 36 36 35 34 33 31 29 27 26 26 27 26 24 23 22 23 25 27 27 26 26 27 26 25 25 27 29 31 32 32 33 33 33 33 33 32 32 32 33 34 36 37 37 36 34 33 32 31 30 30 31 31 32 34 35 36 36 35 35 35 35 36 36 36 35 35 35 34 33
27 27 27 27 28 30 32 34 36 37 38 39 39 39 39 39 38 38 37 37 35 33 31 29 28 27 27 27 26 25 24 24 25 27 28 28 28 29 29 27 26 27 29 30 31 31 32 34 37 37 36 36 35 34 34 35 36 38 38 38 37 35 34 33 32 32 32 33 33 33 34 36 36 36 36 36 36 37 38 38 38 37 38 39 39
31 31 30 31 31 31 32 33 35 36 38 40 41 42 42 41 41 40 39 38 38 36 34 32 30 28 28 28 27 27 26 26 25 26 28 29 29 30 30 30 29 28 28 30 32 32 32 36 41 42 39 39 38 38 38 38 40 41 40 39 38 37 36 36 35 34 34 34 34 33 33 34 35 36 37 37 37 37 38 38 38 39 39 39 40
34 34 35 35 35 35 35 35 35 36 37 39 41 42 43 43 42 42 41 40 39 38 37 34 32 31 30 29 29 28 28 27 27 27 27 28 29 30 31 31 30 28 28 29 32 34 36 40 45 44 42 42 43 44 44 44 46 46 44 41 40 39 39 38 36 35 35 35 35 34 34 34 35 35 36 37 38 38 38 39 38 38 39 40 41
32 33 34 35 36 36 36 36 36 36 37 38 39 41 42 42 42 42 42 41 40 39 39 37 35 33 32 31 30 29 29 28 27 27 28 29 29 30 30 31 31 31 29 30 32 35 40 44 46 45 42 41 43 47 48 47 47 49 47 43 41 39 39 39 39 37 36 35 35 35 35 35 35 35 36 38 38 39 40 40 40 40 41 43 44
30 31 32 33 34 34 35 35 35 35 35 35 36 38 39 40 41 41 41 41 41 41 41 40 38 36 34 33 32 30 30 30 29 28 28 29 30 31 31 31 32 32 31 31 32 34 39 43 47 49 47 41 39 44 48 48 48 49 49 46 44 41 40 40 40 38 37 36 35 35 36 36 37 37 37 38 40 41 42 42 43 44 45 45 46
28 29 30 31 32 33 33 34 34 34 33 33 33 33 34 36 37 39 40 41 42 42 42 42 40 38 36 35 34 33 31 31 30 30 29 29 30 31 32 32 33 33 33 34 33 34 36 38 43 51 54 46 39 40 46 51 52 51 49 47 45 43 42 41 40 40 39 37 36 35 36 37 38 38 39 40 41 42 44 45 45 45 45 45 44
24 25 27 28 29 30 31 31 32 33 34 34 33 32 32 32 33 34 36 38 39 41 41 41 41 40 38 37 36 35 34 32 32 32 31 31 30 31 31 32 33 34 35 35 35 35 36 35 40 49 52 47 41 41 45 51 54 51 48 46 45 44 43 41 41 41 41 40 39 38 37 37 38 39 40 41 42 43 45 46 44 43 43 43 43
22 23 24 25 26 27 28 28 29 30 31 32 33 33 32 31 31 32 33 35 37 38 39 39 39 39 38 38 38 37 35 33 32 33 33 33 32 32 32 32 32 33 35 36 36 37 36 35 39 46 45 41 40 42 46 51 53 50 48 47 47 46 43 41 41 41 41 41 41 41 41 41 42 43 43 42 42 43 45 46 45 44 44 44 45
22 24 25 26 27 27 28 29 29 29 30 30 31 31 31 31 31 31 32 33 35 35 36 36 36 36 36 36 37 37 36 34 32 32 34 35 34 34 33 34 33 33 34 36 37 37 35 34 36 40 38 36 39 43 47 50 52 51 49 47 46 45 45 44 43 42 42 43 44 45 45 45 46 46 46 45 43 43 45 47 47 47 47 48 49
22 24 25 27 28 29 30 30 31 32 32 32 32 32 32 32 31 31 31 32 33 34 35 35 35 36 35 35 35 35 34 34 32 32 32 34 35 35 35 35 34 33 33 34 36 35 34 33 33 33 32 33 36 42 47 50 51 50 48 46 44 45 46 46 44 42 42 43 45 47 47 46 47 49 50 48 46 46 47 49 48 47 48 49 50
21 23 24 25 27 28 29 30 31 32 33 34 35 35 35 35 35 34 33 33 33 33 34 35 36 36 37 37 37 36 35 34 33 32 32 32 33 35 35 35 35 34 33 33 34 33 33 34 33 30 30 32 34 39 44 47 48 48 48 46 45 46 47 47 44 42 42 42 42 45 47 46 47 49 52 53 54 53 52 51 49 45 44 44 45
20 21 22 23 24 26 27 28 29 30 32 33 34 35 36 37 38 38 38 37 37 36 36 36 36 36 37 37 38 39 38 37 36 35 34 33 33 34 35 36 36 36 35 34 34 34 35 36 36 32 30 31 34 37 39 43 46 48 49 49 48 48 48 48 47 46 45 43 41 43 45 46 47 48 49 52 55 54 53 52 48 45 44 44 45
19 19 20 21 22 23 24 26 27 28 29 30 31 33 34 36 37 38 39 40 40 40 39 39 39 39 38 38 38 38 38 39 39 38 37 36 35 35 35 36 36 37 38 37 36 36 37 39 39 37 34 32 32 34 37 41 45 49 50 49 48 48 49 50 50 51 51 48 45 44 45 46 47 47 48 50 50 50 49 48 46 44 45 47 47
Wind_Direction
272 278 284 287 287 290 293 292 295 298 298 294 289 282 275 270 263 256 256 260 265 264 254 239 229 229 236 261 277 273 264 265 271 274 277 277 275 274 274 269 264 263 263 266 266 264 264 259 257 259 259 259 252 243 237 238 246 253 253 249 244 243 242 242 245 245 241 236 233 231 229 236 244 247 247 249 252 251 253 258 259 259 259 257 255
278 282 286 288 288 288 289 292 297 303 306 305 301 292 278 269 265 262 262 262 264 263 254 244 235 235 240 242 253 257 254 258 263 268 271 271 271 271 272 268 263 261 261 264 264 264 261 258 265 258 235 234 251 251 245 241 246 252 249 244 238 235 234 236 239 236 230 230 231 230 231 235 240 245 247 250 251 252 254 257 257 257 256 255 256
276 279 281 284 286 286 288 294 303 316 323 321 312 298 282 273 267 264 264 263 261 259 253 248 243 244 249 249 248 246 247 253 260 267 270 270 269 268 267 264 262 264 263 263 263 267 266 266 281 272 227 217 251 258 252 249 250 249 243 239 235 231 231 233 235 233 229 230 231 231 232 236 239 243 246 249 253 253 252 252 255 257 256 258 260
274 276 280 285 287 289 294 301 313 331 339 334 321 300 284 276 271 268 267 266 265 262 257 253 248 246 251 256 257 253 250 250 253 263 269 270 269 264 260 258 259 262 262 263 261 265 270 270 281 285 253 244 266 261 254 256 252 244 240 235 226 226 230 229 230 233 230 230 232 233 237 241 243 244 244 247 251 253 251 250 254 258 259 260 260
279 281 283 285 288 292 300 306 316 332 340 332 322 299 280 273 270 271 272 273 271 267 261 257 252 248 251 258 262 260 255 251 250 256 264 266 264 260 256 254 254 256 256 259 259 259 266 269 272 278 271 264 265 256 252 257 248 234 234 230 221 225 229 226 230 234 232 231 233 236 242 245 247 246 244 244 245 247 250 252 252 254 256 258 258
283 285 285 286 289 295 300 304 311 321 320 309 300 286 274 268 265 266 270 273 275 272 265 259 257 257 258 261 261 260 257 254 253 255 260 262 260 258 256 253 252 254 255 254 255 257 261 266 271 273 269 263 261 255 252 254 243 227 225 227 228 232 230 227 232 234 232 233 236 240 245 249 250 249 245 243 242 242 246 251 253 253 253 254 256
286 287 286 287 290 293 296 298 303 307 302 291 283 278 275 272 267 263 263 267 269 269 265 261 259 261 264 265 262 260 259 257 256 256 257 260 260 257 255 252 250 251 255 255 254 255 257 262 267 270 270 263 257 253 250 248 237 224 221 226 229 229 228 232 234 233 234 235 239 247 250 251 253 251 246 244 245 245 245 247 251 255 253 253 255
285 286 287 288 289 289 290 292 294 296 292 285 280 275 270 268 270 268 266 269 270 268 266 261 257 257 260 264 262 256 254 255 257 260 261 260 260 258 255 251 250 249 252 256 255 251 253 256 259 262 262 257 252 249 250 249 239 227 223 225 225 223 227 235 237 235 236 239 245 251 251 251 251 250 246 243 245 246 244 241 244 251 254 257 259
283 285 286 286 284 284 285 287 290 292 292 291 291 292 287 283 289 287 279 280 282 282 276 266 260 256 254 260 260 251 247 250 252 256 259 260 258 258 257 253 252 250 249 253 253 250 251 252 253 254 251 248 248 249 252 252 242 231 227 228 230 231 236 241 243 241 241 245 250 250 248 247 246 245 245 244 244 243 243 245 248 250 251 256 260
279 280 281 279 275 276 279 282 286 289 290 289 285 288 294 296 302 303 295 290 291 295 288 271 265 266 260 259 256 249 248 252 252 251 255 258 255 253 255 253 252 252 252 252 252 249 248 248 249 248 245 244 247 249 251 250 242 231 227 232 238 244 248 249 248 246 245 246 247 247 247 245 243 243 245 247 248 246 249 257 264 262 255 255 256
279 277 276 273 270 270 273 277 282 284 286 287 279 278 285 290 294 297 298 296 291 294 293 278 272 274 269 261 258 255 256 259 258 255 253 253 250 247 248 251 252 253 253 252 250 248 244 242 244 245 244 244 245 247 249 252 250 244 241 245 249 251 251 250 249 246 244 242 243 244 245 244 244 246 247 248 248 250 258 265 271 269 263 259 258
283 279 277 276 274 274 275 278 281 281 283 287 285 282 285 287 286 288 291 292 290 290 292 289 285 283 274 263 262 263 262 260 258 255 252 247 243 243 245 246 248 249 249 249 247 246 241 237 238 241 242 244 246 249 251 251 252 252 253 255 254 252 250 250 250 247 243 242 243 245 246 245 246 248 249 249 249 252 258 260 259 259 258 257 258
285 282 281 282 281 281 280 278 278 278 278 281 284 287 289 287 285 285 285 285 286 288 289 290 292 288 275 261 258 262 263 260 257 258 258 250 243 245 246 243 244 245 246 245 241 240 239 236 236 238 241 244 248 252 252 250 249 250 252 252 252 251 250 251 252 249 246 246 247 249 247 246 246 248 250 250 252 256 258 256 254 254 255 256 257
280 279 281 282 283 282 279 275 274 275 277 280 283 286 287 287 285 285 284 282 283 285 286 285 286 283 274 264 261 264 267 264 259 259 261 255 247 247 245 240 240 242 244 244 239 238 239 236 235 237 240 244 247 249 247 245 247 248 249 250 250 250 249 251 252 250 248 248 249 249 249 247 247 248 250 251 254 257 259 260 260 260 260 259 259
272 273 275 276 277 277 276 275 275 275 277 281 283 285 285 285 286 285 285 285 285 285 284 283 281 279 277 275 272 270 268 266 262 258 257 253 248 246 243 237 236 240 244 245 241 239 238 236 234 235 236 239 241 242 241 241 244 247 250 250 250 249 250 250 250 250 250 251 250 250 250 249 249 252 254 255 256 257 259 260 260 261 260 259 258
270 272 273 271 270 271 273 275 277 278 280 281 282 283 283 283 285 285 286 288 288 287 286 286 283 281 280 279 277 275 270 267 264 257 253 251 245 245 246 236 233 239 243 244 240 236 236 235 234 233 232 233 234 234 235 237 241 246 248 248 247 247 248 250 250 251 252 252 252 251 251 251 252 255 256 257 256 256 257 257 257 256 256 256 257
272 274 274 273 271 271 273 276 278 280 281 281 281 281 282 282 284 285 288 291 293 291 290 289 285 282 280 276 272 275 273 269 264 252 249 249 243 244 248 236 232 238 241 242 239 234 233 233 232 230 229 228 229 229 231 234 238 241 243 244 244 245 246 247 248 249 251 252 252 252 253 253 254 255 255 255 255 256 255 255 254 253 252 254 258
271 273 273 271 272 274 276 277 279 282 283 284 284 283 282 283 285 287 289 292 294 293 292 289 285 281 278 271 265 266 269 269 261 246 244 244 240 241 242 234 231 236 238 240 237 233 231 229 228 228 225 223 224 226 228 231 235 237 239 241 242 243 245 245 246 247 250 252 253 254 255 255 254 254 254 255 255 254 252 251 250 249 250 254 258
268 270 269 269 272 277 280 281 282 284 286 287 287 286 285 285 287 289 290 292 293 292 291 290 288 283 276 268 262 260 261 263 257 246 243 241 237 237 236 232 232 234 236 237 234 231 229 225 225 223 221 221 222 224 227 229 233 235 237 239 240 242 244 245 246 247 248 251 254 256 257 257 256 255 255 254 253 251 248 247 245 245 249 252 255
269 270 269 270 275 281 282 282 283 285 287 289 289 288 289 290 291 292 294 296 297 294 293 292 289 284 276 269 262 256 256 258 255 248 246 243 236 233 233 233 232 231 232 232 229 228 226 223 222 220 219 221 223 226 229 230 232 233 236 238 240 242 244 245 245 245 246 249 252 254 255 256 256 255 254 252 251 249 248 245 243 244 247 249 250
270 270 271 274 279 282 282 282 283 284 287 288 287 288 290 292 294 296 298 299 300 298 296 293 289 283 277 270 262 256 255 258 254 249 249 244 234 231 234 233 230 230 229 227 226 225 223 222 221 220 221 224 226 228 229 229 231 233 235 237 239 242 243 243 243 244 245 247 249 251 253 253 254 253 252 250 249 249 247 245 244 244 246 247 248
268 270 272 276 278 279 280 281 282 284 286 285 285 288 292 294 295 296 299 299 300 299 297 294 290 283 276 270 262 256 256 256 253 249 246 239 230 230 232 229 226 229 228 225 225 225 222 220 220 222 225 226 227 229 229 229 229 230 233 235 237 240 241 241 242 243 245 247 248 249 250 251 250 249 249 249 248 247 245 245 245 246 247 248 249
264 268 271 273 275 275 276 279 280 282 283 283 285 289 291 293 294 295 297 297 299 300 297 297 298 290 278 269 262 257 255 253 249 244 239 230 225 226 226 222 221 226 228 226 225 227 225 222 221 223 226 227 226 227 228 228 227 228 231 232 234 236 238 240 242 244 246 246 246 246 247 249 248 246 248 248 247 246 245 246 246 246 247 247 248
262 265 267 268 270 270 274 279 281 281 281 283 285 287 289 290 291 292 294 295 299 300 296 296 302 299 285 272 264 260 257 251 241 233 229 223 220 221 222 218 217 222 227 228 226 226 227 226 225 225 225 225 225 225 226 226 226 228 230 232 234 237 239 241 243 245 246 245 244 243 244 247 247 247 248 248 247 246 245 244 245 245 245 246 248
263 265 266 265 266 268 274 280 282 282 283 284 285 286 287 288 289 290 293 296 299 301 298 297 301 304 294 279 269 264 258 246 228 221 224 220 217 220 222 217 214 218 225 228 227 226 227 228 227 225 225 224 224 224 224 225 226 228 231 234 237 240 242 243 244 245 244 243 242 242 243 245 247 248 249 248 246 245 245 244 244 246 247 248 250
264 268 269 266 264 266 270 275 279 282 283 283 284 286 287 288 289 290 293 297 300 301 302 300 302 305 301 286 271 259 253 240 222 219 221 216 215 222 223 217 214 216 221 227 229 229 228 229 228 226 225 225 224 224 224 225 226 228 230 233 237 240 242 243 244 243 242 240 240 241 244 246 247 249 249 247 245 245 246 246 247 248 250 251 252
262 267 270 268 266 266 268 272 276 279 279 280 282 284 286 288 289 291 293 296 299 299 300 301 303 305 302 291 273 254 244 235 226 222 215 211 217 225 224 218 216 215 217 221 228 231 230 230 231 230 229 228 225 225 226 227 228 228 229 232 235 238 240 240 240 239 239 239 240 242 245 247 249 250 250 248 247 247 248 250 251 252 252 253 254
262 266 267 267 268 269 271 272 274 275 277 279 281 283 286 288 290 291 292 295 297 297 297 299 301 303 300 293 283 261 239 229 226 219 213 214 221 225 222 219 217 215 215 217 224 230 231 231 233 234 233 231 228 227 228 229 229 229 231 232 233 235 236 235 235 236 237 239 241 243 246 248 249 250 250 251 250 250 251 253 254 253 252 253 253
262 266 268 268 268 269 269 269 270 273 275 278 281 283 286 289 291 291 291 293 295 295 296 297 298 301 299 295 294 277 239 223 222 219 218 221 223 222 222 222 220 218 216 217 223 231 233 233 233 234 234 232 229 228 229 230 230 231 234 235 234 234 234 234 234 235 237 239 241 244 246 248 249 249 250 251 251 252 253 253 253 252 252 252 251
262 266 268 267 265 263 262 264 268 272 276 278 280 282 285 289 291 292 290 289 291 293 295 297 297 299 299 296 297 293 245 220 218 221 223 226 224 221 221 222 222 222 220 219 223 229 233 233 232 234 236 235 232 231 230 230 230 232 236 237 237 236 235 235 235 236 238 239 240 242 243 244 245 246 247 249 251 252 252 251 252 251 251 251 249
262 262 262 262 261 260 261 265 270 274 276 277 277 279 283 287 289 290 289 286 287 288 291 294 295 294 297 295 294 296 270 222 216 220 224 227 227 224 223 223 225 226 225 223 224 226 229 232 232 233 236 238 237 236 234 233 231 232 235 238 240 240 240 239 237 237 238 239 239 239 239 239 240 241 244 246 248 249 249 249 250 250 251 250 249
261 259 257 257 260 263 266 269 272 274 275 275 275 276 279 283 286 287 287 285 283 285 286 289 291 289 290 292 290 291 286 247 224 221 222 227 230 228 225 226 227 229 229 227 225 227 230 232 231 232 236 240 241 241 239 238 236 234 235 237 240 242 243 242 241 240 240 239 239 238 237 236 236 238 242 244 245 246 247 248 249 250 251 252 251
259 259 259 259 261 263 266 268 269 271 272 273 274 276 277 280 282 284 285 285 283 282 282 284 287 285 281 283 285 285 282 268 246 231 225 227 231 230 229 230 232 233 233 231 230 232 232 232 233 238 243 245 245 244 244 243 240 237 235 236 238 241 242 243 243 242 242 241 239 238 237 237 237 240 243 245 246 247 247 247 248 250 252 253 254
258 259 261 262 263 264 265 265 267 268 270 271 273 275 277 278 280 282 282 283 282 282 281 281 283 283 279 275 276 278 277 270 257 246 236 232 232 232 233 233 234 236 235 233 234 236 237 240 244 249 252 252 248 246 245 245 243 240 237 235 236 239 241 242 243 243 243 243 242 241 239 239 241 243 246 248 249 249 249 248 248 249 252 254 255
260 260 260 261 262 264 265 266 267 267 269 270 271 273 275 277 278 279 279 280 281 282 282 280 279 279 278 275 272 270 271 270 263 255 247 242 238 237 237 236 234 235 236 237 237 239 241 243 246 248 249 249 248 247 246 245 244 243 240 237 237 238 241 242 243 244 245 245 245 244 243 243 244 246 247 249 250 250 250 249 249 249 251 252 253
262 261 258 257 259 263 266 268 270 270 271 271 272 272 274 275 276 276 277 278 279 280 281 280 278 277 276 275 273 268 266 266 266 261 256 250 246 244 244 242 239 237 237 239 240 240 242 243 243 244 245 244 245 247 246 244 243 243 242 240 238 239 241 244 246 247 248 247 246 246 246 245 246 247 248 249 250 251 250 250 249 248 249 250 252
264 263 260 259 260 264 267 269 270 271 272 272 272 272 273 274 275 276 276 277 277 278 279 277 276 275 275 274 272 268 264 262 263 263 260 256 252 251 251 249 246 242 239 239 239 240 243 245 243 243 243 243 243 246 248 246 243 242 242 241 240 240 241 244 247 249 250 250 248 247 246 246 246 247 248 249 250 251 251 251 250 250 250 248 248
267 267 266 265 265 265 266 268 269 270 271 271 271 272 273 274 276 277 277 277 276 276 277 276 273 271 271 272 272 269 265 262 260 261 261 258 256 256 256 255 252 248 244 241 240 241 245 247 245 244 245 246 247 248 249 249 246 244 243 243 241 241 241 243 245 248 251 252 252 250 248 248 248 248 249 250 250 251 252 252 251 252 251 249 247
268 269 269 268 267 266 266 267 268 269 269 270 269 270 271 274 276 277 277 276 276 275 275 275 274 270 267 268 270 271 268 264 260 259 259 257 256 256 257 256 255 253 249 244 242 242 244 247 248 247 248 250 251 250 250 251 249 246 244 244 243 242 242 242 243 245 248 250 252 252 252 251 251 251 252 252 251 251 251 251 252 252 252 253 253
267 268 269 269 269 269 269 268 268 267 267 268 268 269 270 271 273 275 276 275 275 275 275 274 274 272 268 265 266 269 270 268 264 260 257 256 255 255 256 256 255 255 253 249 246 244 245 247 247 246 247 249 251 251 251 252 252 249 245 243 243 242 242 242 242 243 244 246 248 250 252 253 253 254 254 254 253 252 250 250 251 251 253 254 256
265 266 267 268 268 269 270 269 269 269 268 268 268 269 269 269 270 271 273 274 274 274 275 275 274 272 270 267 265 265 267 268 267 265 261 257 255 253 253 253 254 253 252 250 249 247 247 247 246 245 247 249 249 250 249 250 253 253 250 245 244 243 242 242 243 244 244 245 247 248 250 252 253 254 254 254 253 253 252 251 251 252 255 257 258
265 266 267 267 268 268 269 270 271 272 272 272 271 270 269 268 267 267 268 271 273 274 275 275 275 273 272 270 268 266 265 264 264 263 263 261 259 256 254 252 252 252 251 250 249 248 249 251 251 251 253 252 249 247 246 245 249 253 253 250 247 246 245 244 243 245 245 246 248 249 250 251 253 254 255 254 254 253 252 252 252 255 258 259 259
270 270 270 270 270 269 269 270 271 272 273 273 272 271 270 269 268 267 267 268 271 273 274 275 274 273 272 272 270 268 266 264 261 260 259 259 259 259 258 255 253 253 253 252 252 252 251 253 253 253 254 254 249 245 243 242 245 249 251 251 251 250 250 248 245 245 247 249 250 251 253 254 255 255 256 256 256 255 254 253 254 257 260 261 261
276 276 276 275 275 275 274 274 274 275 274 274 273 273 271 270 269 269 270 270 270 271 271 272 273 273 272 272 271 270 267 265 262 259 257 256 256 257 258 258 256 255 255 254 254 255 254 252 252 252 252 252 250 247 245 243 243 245 247 249 250 251 253 253 251 250 252 253 254 254 255 256 256 256 257 258 258 258 256 255 255 257 259 260 261
280 280 279 279 279 279 278 278 276 276 276 275 274 274 273 270 269 268 268 269 269 270 270 270 270 270 271 271 271 270 268 265 262 259 257 256 255 254 254 256 256 256 256 255 255 254 252 250 252 253 250 246 245 246 246 244 242 242 244 246 248 251 254 256 257 255 255 257 258 258 258 258 258 258 257 257 258 259 259 258 258 259 261 262 263
284 284 283 283 283 283 283 282 280 279 278 277 275 273 272 270 268 266 265 264 265 265 266 268 269 269 269 270 271 271 270 266 262 258 256 255 255 254 253 253 253 253 254 255 255 254 250 249 253 253 248 242 242 243 245 245 244 244 245 247 249 252 254 257 259 259 258 259 260 261 261 262 262 262 261 259 257 257 259 261 262 262 264 265 265
286 287 287 287 287 287 286 285 284 284 283 282 280 278 275 274 271 267 264 263 262 261 261 262 264 265 266 267 269 269 270 268 264 259 256 254 254 254 254 255 254 252 252 252 253 253 248 246 253 256 251 246 244 242 242 243 244 245 246 248 249 250 251 254 257 257 257 258 259 260 261 262 263 263 263 262 260 258 258 260 261 263 264 264 264
291 291 290 290 289 288 287 286 286 285 284 284 283 282 281 279 277 274 270 267 265 263 262 260 259 260 260 261 262 263 265 266 265 262 258 255 255 254 254 255 256 255 254 253 254 253 249 247 253 258 255 250 245 240 239 241 243 245 247 248 248 247 247 248 249 251 253 255 258 260 260 260 260 260 261 262 262 262 263 261 261 262 264 264 263
296 295 294 293 292 291 290 288 287 285 284 283 282 281 280 278 277 276 274 272 270 268 266 265 263 262 260 260 260 259 259 260 261 261 260 257 256 256 255 255 256 255 254 253 253 253 251 251 254 256 255 253 250 245 243 244 245 246 246 246 246 245 245 245 246 251 256 258 258 258 258 257 256 257 259 261 263 264 263 260 259 261 264 264 264
304 302 300 298 296 295 293 292 291 289 286 285 283 281 280 278 277 275 274 274 273 271 270 269 267 266 265 263 262 262 261 260 259 258 259 258 256 256 255 256 256 255 254 252 251 250 249 250 253 254 254 254 254 252 251 250 248 245 244 244 245 246 246 246 247 255 262 263 258 255 255 254 253 254 256 258 259 259 256 254 255 259 263 263 263
315 313 310 307 304 301 299 298 297 295 293 291 288 286 284 281 280 278 276 274 273 272 271 270 269 268 267 266 265 264 264 263 262 259 258 258 257 256 255 255 254 254 253 252 251 249 247 247 249 251 253 254 255 255 255 253 250 246 244 246 248 249 250 251 254 259 264 264 259 255 254 254 253 253 253 253 253 252 252 252 255 259 260 260 260